Location: *
(17.3280°S, 114.7300°W)
Time: 05:21:02
(UTC+00:00)

H-2A R/B - Visible Passes

Search period start: 26 November 2020 00:00
Search period end: 06 December 2020 00:00
Orbit: 500 x 540 km, 97.3° (Epoch: 22 November)

Date Brightness Start Highest point End Pass type
(mag) Time Alt. Az. Time Alt. Az. Time Alt. Az.
26 Nov 6.0 11:56:34 10° ENE 11:58:47 15° ESE 12:01:00 10° SE visible
01 Dec 4.5 12:21:59 10° NE 12:25:29 37° ESE 12:28:59 10° S visible
02 Dec 5.5 12:09:02 10° NE 12:12:05 23° ESE 12:15:06 10° SSE visible
03 Dec 5.9 11:56:30 10° ENE 11:58:41 15° ESE 12:00:53 10° SE visible
